Theta_e
340 339 337 336 336 335 333 331 324 320 320 325 326 330 329 330 327 329 327 314 307 306 306 309 313 315 315 316 317 319 321 322 322 323 323 324 324 322
340 338 338 337 336 336 336 331 330 326 322 327 326 330 331 329 326 328 326 316 307 305 304 305 307 310 312 312 313 314 317 318 319 320 320 321 321 318
339 337 336 338 335 334 335 332 328 328 325 327 330 330 328 329 328 326 326 325 323 304 303 303 303 305 307 308 308 310 311 313 315 316 317 317 317 315
334 333 335 334 333 334 332 330 328 330 327 325 328 327 328 330 328 325 322 321 323 312 303 303 303 303 303 304 305 305 306 308 309 310 311 312 312 311
331 329 331 331 328 328 328 327 327 327 326 325 325 327 326 323 319 308 305 306 304 303 301 301 301 303 303 302 303 303 303 304 303 303 304 305 306 306
332 330 328 327 328 327 326 327 327 325 325 326 324 320 316 314 311 307 304 299 302 297 298 298 301 302 302 302 301 302 302 301 301 300 298 297 297 299
328 327 327 323 312 319 324 324 325 325 324 325 321 305 302 299 300 302 302 296 293 292 293 295 297 301 302 300 303 302 299 298 298 297 295 294 293 294
323 325 325 311 310 302 303 299 309 325 323 320 316 304 304 302 304 306 300 291 293 291 290 288 289 289 291 298 298 297 297 296 294 292 292 291 291 291
324 321 318 317 312 317 299 296 295 294 293 313 313 316 313 311 308 302 296 296 295 289 289 285 286 285 287 291 293 292 292 292 291 290 289 289 288 289
319 318 316 315 313 313 311 304 303 303 302 302 304 305 303 304 305 305 300 289 286 288 288 285 285 284 285 285 289 289 289 289 288 287 287 286 286 286
300 296 311 308 294 299 305 299 293 291 292 291 291 291 290 290 291 294 289 289 285 285 286 285 283 282 284 284 285 288 288 287 287 286 286 286 286 286
291 288 287 291 289 291 300 300 296 291 294 291 289 288 288 288 288 295 292 290 286 285 286 284 282 282 279 283 284 284 285 286 286 286 285 285 285 284
288 286 286 287 288 289 288 289 288 287 286 288 288 288 287 286 286 287 288 290 288 286 286 286 284 283 281 280 282 283 283 284 284 285 286 286 286 285
284 285 285 286 286 286 286 286 286 287 288 287 285 284 283 282 283 284 285 285 285 286 286 286 285 282 281 279 278 281 282 283 283 283 284 285 285 286
283 284 284 284 284 283 283 283 285 286 286 284 281 280 281 283 284 283 284 284 283 284 285 285 285 283 282 280 278 279 279 281 283 283 284 284 284 284
282 282 281 281 281 281 281 282 281 281 280 279 279 280 282 281 280 282 281 281 280 279 283 285 285 284 281 281 280 279 281 280 283 284 284 284 284 285
283 282 281 281 280 279 279 279 280 280 279 279 279 279 279 279 279 280 280 279 277 277 278 280 282 283 283 282 279 281 281 281 283 282 282 281 283 284
283 281 280 279 279 279 278 278 279 279 279 279 279 279 279 279 279 280 280 279 277 278 279 280 281 280 280 280 283 281 281 280 281 282 282 281 281 283
284 283 283 282 281 281 280 280 280 281 282 281 281 281 282 281 281 281 282 281 280 281 282 283 283 280 277 274 278 281 280 280 280 279 281 281 282 283
283 282 282 283 283 283 283 283 283 283 283 283 283 283 283 283 282 281 281 280 280 280 280 282 282 281 278 276 275 276 279 280 280 279 280 282 282 279
282 282 283 283 282 282 282 283 283 282 283 282 282 282 282 282 280 280 280 279 278 277 276 276 278 280 280 280 275 275 275 277 277 279 279 280 280 280
281 281 282 283 283 283 283 283 283 283 282 282 282 282 282 282 281 280 280 279 278 278 277 278 280 281 281 278 275 275 276 276 276 276 276 275 276 278
281 281 282 283 283 283 282 282 282 282 282 282 282 281 283 281 281 280 280 279 278 278 278 277 279 280 279 278 276 275 275 276 277 277 276 275 274 274
Wind_Speed
13 13 11 10 10 10 10 9 5 7 7 9 8 12 9 9 11 12 15 17 18 17 17 16 16 16 17 18 18 18 19 19 18 17 19 19 20 18
11 13 13 10 9 9 8 8 9 8 9 6 9 10 12 10 10 12 13 18 17 19 19 18 18 17 17 16 17 17 18 18 17 16 14 19 20 21
13 13 14 14 9 9 8 8 5 5 10 8 3 6 10 11 10 9 11 10 10 18 19 20 19 18 17 17 17 16 16 16 16 15 18 21 22 23
13 12 14 10 12 10 9 10 7 7 7 11 7 5 9 9 8 9 8 8 9 12 18 18 21 20 18 19 19 17 16 17 17 19 20 21 21 21
14 14 13 13 12 9 10 8 7 6 7 9 8 2 5 2 4 1 1 1 2 5 9 16 18 20 21 18 16 16 17 19 20 19 18 19 20 20
11 12 12 13 14 12 11 11 8 8 8 10 7 5 5 3 3 3 6 3 5 1 3 5 10 17 20 19 18 18 18 19 20 19 18 16 16 18
8 9 10 12 12 12 7 9 9 10 9 8 5 2 3 3 5 4 7 1 2 2 2 1 2 6 9 15 14 21 20 19 21 19 18 17 16 15
10 10 7 9 12 11 8 2 2 7 7 3 2 4 4 4 5 7 4 3 4 4 3 1 3 3 3 3 12 17 22 25 25 25 24 21 18 14
9 7 7 3 6 5 3 5 5 4 1 3 5 9 6 4 5 6 6 6 4 3 3 2 3 4 5 5 20 24 23 24 26 23 24 21 19 15
7 6 8 6 6 6 6 4 3 3 2 2 5 5 5 7 8 6 7 4 4 3 2 3 2 4 4 5 11 21 24 25 25 23 20 17 16 13
10 10 5 6 5 6 6 5 3 2 3 0 3 5 8 13 16 2 3 5 2 2 1 3 2 4 3 4 4 13 19 25 20 21 21 18 16 14
9 8 14 7 6 5 3 4 4 2 3 4 3 3 6 8 10 6 7 6 3 2 4 4 5 3 4 2 4 4 6 19 18 19 19 19 18 6
6 5 6 12 12 11 9 5 3 5 4 4 4 4 6 7 7 7 6 2 3 2 5 5 4 3 3 5 2 4 5 8 6 9 15 16 16 9
9 5 8 16 17 14 10 10 8 4 4 5 5 6 6 6 7 8 9 8 7 5 7 5 4 4 5 4 4 4 5 5 5 5 6 9 12 8
8 12 16 14 13 12 16 12 7 4 4 6 6 6 5 5 6 5 8 10 13 11 7 4 5 8 4 7 8 7 8 5 5 5 5 5 4 3
9 9 8 11 12 10 8 8 6 5 6 7 6 5 4 6 7 5 6 7 9 9 12 10 8 6 7 8 10 10 8 4 6 6 6 5 4 3
8 7 7 7 8 7 7 7 6 6 7 6 6 5 6 6 6 5 7 8 9 7 8 10 14 14 11 10 10 8 7 7 6 7 5 4 3 5
7 7 8 7 8 6 7 7 6 7 6 6 6 6 7 7 7 7 7 9 9 7 8 7 9 11 11 14 16 8 7 6 6 6 3 4 5 4
9 9 7 7 7 7 7 6 7 6 7 6 7 7 8 7 8 8 8 8 8 8 7 6 5 6 9 9 4 21 6 6 5 4 3 2 3 4
10 9 8 8 7 7 7 7 7 7 6 7 7 7 7 8 8 9 9 9 9 8 8 8 7 7 8 5 5 3 16 4 4 5 4 1 2 6
8 9 8 7 7 7 7 7 8 8 7 7 8 8 7 8 9 8 9 11 10 7 8 8 8 12 8 8 7 5 5 13 10 5 2 2 2 4
8 8 8 7 7 7 7 6 7 7 8 7 8 8 6 8 8 8 7 7 8 7 8 6 6 6 6 8 8 8 6 6 8 10 10 7 3 2
8 8 8 8 7 7 7 7 7 7 7 7 8 7 4 7 8 8 8 8 7 7 8 7 6 6 7 8 8 6 6 4 4 5 5 5 2 2
Wind_Direction
209 206 213 209 201 209 217 233 243 230 200 207 213 203 210 220 218 207 214 208 207 208 212 217 215 207 204 205 207 210 212 218 225 230 225 216 194 183
201 210 216 224 223 224 227 226 225 251 262 209 200 188 201 203 206 214 218 226 207 215 212 210 213 211 206 207 207 208 209 212 219 215 205 193 180 174
202 209 217 212 214 217 218 229 232 234 254 256 196 163 189 204 213 209 222 225 224 214 218 214 211 210 208 207 211 210 210 208 202 194 182 179 178 179
195 202 219 216 211 210 212 213 219 224 253 261 249 202 240 212 214 213 217 225 234 217 212 220 212 207 209 210 207 207 206 196 185 179 177 180 178 179
189 193 204 212 211 205 209 208 211 215 220 242 249 216 229 199 206 260 329 286 288 326 233 218 216 216 211 208 211 204 202 192 177 174 174 176 176 171
196 199 180 200 215 211 203 206 202 209 216 232 229 207 211 194 240 234 245 219 245 283 291 274 243 226 213 205 199 197 189 184 178 170 160 156 152 157
182 203 197 188 216 211 198 212 209 218 225 235 218 140 178 186 199 200 234 189 236 224 241 278 277 231 225 212 202 187 170 164 155 143 136 130 130 136
172 179 184 192 205 206 211 115 32 247 249 244 198 192 204 202 200 216 197 170 260 192 154 68 353 7 335 180 158 153 156 147 139 131 126 125 127 131
179 158 132 178 159 158 123 91 95 120 175 278 257 254 264 211 215 211 197 205 216 148 106 65 18 41 4 70 121 126 129 129 128 122 127 133 137 142
154 136 137 167 187 147 142 145 133 138 144 194 240 282 296 307 287 254 215 121 61 74 63 111 57 52 50 59 100 121 123 120 118 126 129 130 132 130
78 38 72 90 90 106 140 158 138 130 113 8 305 345 323 298 243 173 146 136 135 169 77 104 121 95 39 62 86 115 122 119 127 130 133 137 134 128
72 66 50 77 92 86 126 171 178 113 110 81 45 31 11 1 27 214 149 173 119 144 172 101 132 128 106 42 100 103 118 115 129 131 138 146 145 139
92 72 59 65 77 75 67 75 89 122 106 97 81 49 33 26 27 32 43 60 128 102 158 112 137 134 87 128 101 125 142 125 126 144 150 148 150 158
81 74 78 72 72 70 72 83 94 90 91 87 74 55 43 40 39 42 49 57 50 64 141 96 129 145 133 116 126 146 128 106 120 129 141 154 173 197
75 79 77 73 73 68 64 65 55 71 89 86 80 71 58 52 56 55 64 70 61 54 50 44 116 131 134 129 135 145 135 131 138 143 148 152 163 147
64 68 69 72 63 61 56 46 57 59 81 90 91 85 77 68 60 49 68 71 64 52 43 58 82 97 103 114 128 130 129 137 143 129 123 125 154 183
62 52 51 55 52 51 55 50 47 57 72 78 85 84 80 79 66 64 72 72 85 77 68 64 70 75 79 100 114 120 122 123 120 120 124 130 167 205
73 64 60 56 60 53 56 57 52 57 63 76 81 85 87 88 88 82 78 86 88 83 83 84 95 97 86 58 47 101 103 107 107 120 148 178 187 180
64 60 66 70 76 70 71 71 71 74 75 77 85 89 96 91 94 90 88 85 84 84 75 72 88 100 103 94 69 30 99 103 121 148 157 209 215 125
56 58 56 53 53 59 65 70 71 69 68 73 74 76 88 96 101 100 97 95 90 81 74 65 72 91 108 106 103 70 37 127 148 159 170 109 38 101
52 53 55 59 64 66 64 64 67 71 78 79 77 72 70 81 77 78 86 90 92 88 85 79 82 93 102 104 99 99 59 50 51 38 69 229 200 175
49 55 51 54 59 67 74 80 87 82 81 80 80 79 79 89 93 99 99 96 98 101 103 122 155 139 123 108 114 121 117 108 87 81 71 48 358 360
45 41 46 55 59 58 63 63 69 77 78 76 79 84 93 96 93 99 105 108 108 105 106 99 81 80 93 100 99 102 115 120 141 159 107 94 67 311